Regional Weather Roundup
Issued by NWS Albany, NY

Home | Current Version | Previous Version | Graphics & Text | Print | Product List | Glossary Off
Versions: 1 2 3 4 5 6 7 8 9 10 11 12 13 14 15 16 17 18 19 20 21 22 23 24 25 26 27 28 29 30 31 32 33 34 35 36 37 38 39 40 41 42 43 44 45 46 47 48 49

000
ASUS41 KALY 280110
RWRALY

NEW YORK STATE HOURLY WEATHER ROUNDUP
NATIONAL WEATHER SERVICE ALBANY NY
800 PM EST FRI FEB 27 2015

NOTE: "FAIR" INDICATES FEW OR NO CLOUDS BELOW 12,000 FEET WITH NO
SIGNIFICANT WEATHER AND/OR NO OBSTRUCTIONS TO VISIBILITY.

NYZ032-033-038>043-046>054-057>066-NYZ062>081-280200-
EAST


CITY           SKY/WX    TMP DP  RH WIND       PRES   REMARKS
ALBANY         CLEAR     15  -1  49 W16G29    30.52R WCI  -1
GLENS FALLS    CLEAR      4  -3  73 CALM      30.48R
POUGHKEEPSIE   CLEAR     15  -1  49 W5        30.51R WCI   8
NEWBURGH       CLEAR     19   1  45 NW7       30.50R WCI  10
MONTGOMERY     CLEAR     20  -3  36 NW12      30.49R WCI   8
WHITE PLAINS   CLEAR     22   0  38 W10       30.47R WCI  11
ISLIP          CLEAR     23   9  55 W3        30.48R
NEW YORK CITY  PTCLDY    26   4  38 NW16      30.51R WCI  14
CENTRAL PARK   CLEAR     26   2  35 NW9G17    30.52R WCI  17
$$

NYZ005>009-017-018-044>046-055-056-280200-
CENTRAL


CITY           SKY/WX    TMP DP  RH WIND       PRES   REMARKS
FULTON         CLOUDY    10  -2  58 SW8       30.57R WCI  -2
SYRACUSE       MOCLDY    11   0  60 W10       30.58R WCI  -3
ROME           CLOUDY     9   1  70 NW10      30.57R WCI  -5
ELMIRA         CLEAR      6  -3  66 CALM      30.54R
BINGHAMTON     CLEAR      7  -3  64 N9        30.44R WCI  -7
MONTICELLO     CLEAR     12  -6  44 NW8       30.44R WCI   1
$$

NYZ026>034-041>043-280200-
NORTH


CITY           SKY/WX    TMP DP  RH WIND       PRES   REMARKS
WATERTOWN      LGT SNOW  15  10  80 SW15      30.54R VSB 3/4 WCI   0
FORT DRUM      NOT AVBL
MASSENA        CLEAR      7  -6  55 SW9       30.50R WCI  -7
SARANAC LAKE   MOCLDY     1  -9  62 CALM      30.36R
PLATTSBURGH    CLEAR      6  -6  57 CALM      30.48R
$$

NYZ001>004-010>016-019>021-280200-
WEST


CITY           SKY/WX    TMP DP  RH WIND       PRES   REMARKS
NIAGARA FALLS  PTCLDY     7   1  76 SW14      30.59R WCI -10
BUFFALO        PTCLDY     6   0  76 SW12      30.59R WCI  -9
DUNKIRK        CLEAR      3  -2  79 S8        30.62R WCI -10
JAMESTOWN      FAIR       3  -4  72 W5        30.49R WCI  -6
WELLSVILLE     CLEAR      4  -9  55 W13       30.45R WCI -13
ROCHESTER      CLEAR      7  -1  70 SW13      30.58R WCI  -9
PENN YAN       CLEAR      8  -7  50 W6        30.54R WCI  -2
$$

             KEY
       WCI = WIND CHILL INDEX
       VSB = VISIBILITY
       HX  = HEAT INDEX
$$



USA.gov is the U.S. government's official web portal to all federal, state and local government web resources and services.